Time,TemperatureF,DewpointF,PressureIn,WindDirection,WindDirectionDegrees,WindSpeedMPH,WindSpeedGustMPH,Humidity,HourlyPrecipIn,Conditions,Clouds,dailyrainin,SoftwareType,DateUTC
2013-09-20 00:11:00,77.7,75.0,30.00,ENE,62,5.0,8.0,91,0.00,,,0.00,weatherlink.com 1.10,2013-09-20 04:11:00,
2013-09-20 00:26:00,77.5,75.0,30.00,ENE,62,4.0,7.0,91,0.00,,,0.00,weatherlink.com 1.10,2013-09-20 04:26:00,
2013-09-20 00:41:00,77.5,75.0,30.00,ENE,62,6.0,10.0,92,0.00,,,0.00,weatherlink.com 1.10,2013-09-20 04:41:00,
2013-09-20 00:56:00,77.4,75.0,29.99,ENE,62,5.0,9.0,92,0.00,,,0.00,weatherlink.com 1.10,2013-09-20 04:56:00,
2013-09-20 01:11:00,77.3,75.0,30.00,NE,52,3.0,8.0,92,0.00,,,0.00,weatherlink.com 1.10,2013-09-20 05:11:00,
2013-09-20 01:26:00,77.2,75.0,29.99,NE,52,4.0,6.0,92,0.00,,,0.00,weatherlink.com 1.10,2013-09-20 05:26:00,
2013-09-20 01:41:00,77.1,75.0,29.98,NE,52,4.0,6.0,92,0.00,,,0.00,weatherlink.com 1.10,2013-09-20 05:41:00,
2013-09-20 01:56:00,77.1,75.0,29.98,NE,52,3.0,5.0,92,0.00,,,0.00,weatherlink.com 1.10,2013-09-20 05:56:00,
2013-09-20 02:11:00,76.9,75.0,29.99,NE,54,4.0,7.0,92,0.00,,,0.00,weatherlink.com 1.10,2013-09-20 06:11:00,
2013-09-20 02:26:00,76.8,74.0,29.99,NE,54,5.0,7.0,92,0.00,,,0.00,weatherlink.com 1.10,2013-09-20 06:26:00,
2013-09-20 02:41:00,76.6,75.0,29.99,NE,54,4.0,6.0,93,0.00,,,0.00,weatherlink.com 1.10,2013-09-20 06:41:00,
2013-09-20 02:56:00,76.5,74.0,29.99,NE,43,6.0,8.0,93,0.00,,,0.00,weatherlink.com 1.10,2013-09-20 06:56:00,
2013-09-20 03:11:00,76.4,74.0,29.98,NE,44,4.0,6.0,93,0.00,,,0.00,weatherlink.com 1.10,2013-09-20 07:11:00,
2013-09-20 03:26:00,76.1,74.0,29.98,NE,44,5.0,6.0,93,0.00,,,0.00,weatherlink.com 1.10,2013-09-20 07:26:00,
2013-09-20 03:41:00,76.1,74.0,29.98,NE,43,5.0,7.0,93,0.00,,,0.00,weatherlink.com 1.10,2013-09-20 07:41:00,
2013-09-20 03:56:00,76.0,74.0,29.97,NE,43,5.0,7.0,93,0.00,,,0.00,weatherlink.com 1.10,2013-09-20 07:56:00,
2013-09-20 04:11:00,76.0,74.0,29.97,NE,44,4.0,7.0,94,0.00,,,0.00,weatherlink.com 1.10,2013-09-20 08:11:00,
2013-09-20 04:26:00,76.0,74.0,29.97,NE,43,4.0,8.0,94,0.00,,,0.00,weatherlink.com 1.10,2013-09-20 08:26:00,
2013-09-20 04:41:00,76.0,74.0,29.97,NE,38,3.0,7.0,94,0.00,,,0.00,weatherlink.com 1.10,2013-09-20 08:41:00,
2013-09-20 04:56:00,76.0,74.0,29.97,NNE,29,5.0,7.0,94,0.00,,,0.00,weatherlink.com 1.10,2013-09-20 08:56:00,
2013-09-20 05:11:00,76.0,74.0,29.97,NNE,27,5.0,7.0,94,0.00,,,0.00,weatherlink.com 1.10,2013-09-20 09:11:00,
2013-09-20 05:26:00,75.9,74.0,29.97,NNE,27,4.0,7.0,94,0.00,,,0.00,weatherlink.com 1.10,2013-09-20 09:26:00,
2013-09-20 05:41:00,75.8,74.0,29.98,NNE,27,4.0,6.0,94,0.00,,,0.00,weatherlink.com 1.10,2013-09-20 09:41:00,
2013-09-20 05:56:00,75.7,74.0,29.98,NNE,31,5.0,7.0,94,0.00,,,0.00,weatherlink.com 1.10,2013-09-20 09:56:00,
2013-09-20 06:11:00,75.5,74.0,29.99,NE,37,5.0,7.0,94,0.00,,,0.00,weatherlink.com 1.10,2013-09-20 10:11:00,
2013-09-20 06:41:00,75.2,73.0,29.98,NE,54,5.0,8.0,94,0.00,,,0.00,weatherlink.com 1.10,2013-09-20 10:41:00,
2013-09-20 06:56:00,75.0,73.0,29.98,NE,54,4.0,7.0,94,0.00,,,0.00,weatherlink.com 1.10,2013-09-20 10:56:00,
2013-09-20 07:11:00,74.9,73.0,29.99,NE,49,6.0,7.0,94,0.00,,,0.00,weatherlink.com 1.10,2013-09-20 11:11:00,
2013-09-20 07:26:00,74.8,73.0,29.98,NE,49,6.0,7.0,94,0.00,,,0.00,weatherlink.com 1.10,2013-09-20 11:26:00,
2013-09-20 07:41:00,74.9,73.0,29.99,NE,48,4.0,8.0,94,0.00,,,0.00,weatherlink.com 1.10,2013-09-20 11:41:00,
2013-09-20 07:56:00,75.0,74.0,29.99,NE,45,7.0,10.0,95,0.00,,,0.00,weatherlink.com 1.10,2013-09-20 11:56:00,
2013-09-20 08:11:00,75.3,74.0,29.99,ENE,72,7.0,9.0,94,0.00,,,0.00,weatherlink.com 1.10,2013-09-20 12:11:00,
2013-09-20 08:26:00,75.7,74.0,29.99,NE,53,9.0,10.0,94,0.00,,,0.00,weatherlink.com 1.10,2013-09-20 12:26:00,
2013-09-20 08:41:00,76.0,74.0,29.99,NE,49,4.0,9.0,94,0.00,,,0.00,weatherlink.com 1.10,2013-09-20 12:41:00,
2013-09-20 08:56:00,76.8,75.0,29.99,NE,44,6.0,8.0,93,0.00,,,0.00,weatherlink.com 1.10,2013-09-20 12:56:00,
2013-09-20 09:11:00,77.8,75.0,29.99,ENE,61,7.0,11.0,91,0.00,,,0.00,weatherlink.com 1.10,2013-09-20 13:11:00,
2013-09-20 09:27:00,78.6,75.0,30.00,NE,49,8.0,12.0,89,0.00,,,0.00,weatherlink.com 1.10,2013-09-20 13:27:00,
2013-09-20 09:42:00,79.7,76.0,30.00,NE,47,7.0,13.0,87,0.00,,,0.00,weatherlink.com 1.10,2013-09-20 13:42:00,
2013-09-20 09:57:00,80.6,76.0,30.00,ENE,60,6.0,13.0,85,0.00,,,0.00,weatherlink.com 1.10,2013-09-20 13:57:00,
2013-09-20 10:12:00,81.8,76.0,30.01,ENE,63,5.0,12.0,83,0.00,,,0.00,weatherlink.com 1.10,2013-09-20 14:12:00,
2013-09-20 10:27:00,82.7,76.0,30.01,NE,38,12.0,12.0,81,0.00,,,0.00,weatherlink.com 1.10,2013-09-20 14:27:00,
2013-09-20 10:42:00,83.4,77.0,30.01,NE,54,5.0,11.0,80,0.00,,,0.00,weatherlink.com 1.10,2013-09-20 14:42:00,
2013-09-20 10:57:00,84.5,76.0,30.01,NE,43,7.0,13.0,76,0.00,,,0.00,weatherlink.com 1.10,2013-09-20 14:57:00,
2013-09-20 11:12:00,85.7,77.0,30.01,NE,51,6.0,10.0,75,0.00,,,0.00,weatherlink.com 1.10,2013-09-20 15:12:00,
2013-09-20 11:27:00,86.3,76.0,30.01,NE,44,5.0,15.0,71,0.00,,,0.00,weatherlink.com 1.10,2013-09-20 15:27:00,
2013-09-20 11:42:00,86.6,75.0,30.01,NE,52,9.0,13.0,69,0.00,,,0.00,weatherlink.com 1.10,2013-09-20 15:42:00,
2013-09-20 11:57:00,87.1,75.0,30.00,ENE,62,8.0,13.0,68,0.00,,,0.00,weatherlink.com 1.10,2013-09-20 15:57:00,
2013-09-20 12:12:00,87.7,75.0,30.00,East,80,3.0,15.0,66,0.00,,,0.00,weatherlink.com 1.10,2013-09-20 16:12:00,
2013-09-20 12:27:00,88.6,76.0,29.99,ENE,70,2.0,15.0,66,0.00,,,0.00,weatherlink.com 1.10,2013-09-20 16:27:00,
2013-09-20 12:42:00,89.5,76.0,29.99,East,84,9.0,14.0,64,0.00,,,0.00,weatherlink.com 1.10,2013-09-20 16:42:00,
2013-09-20 12:57:00,90.0,76.0,29.98,ENE,67,4.0,14.0,63,0.00,,,0.00,weatherlink.com 1.10,2013-09-20 16:57:00,
2013-09-20 13:12:00,90.4,76.0,29.97,ENE,58,7.0,13.0,63,0.00,,,0.00,weatherlink.com 1.10,2013-09-20 17:12:00,
2013-09-20 13:27:00,90.8,75.0,29.96,ENE,74,2.0,12.0,60,0.00,,,0.00,weatherlink.com 1.10,2013-09-20 17:27:00,
2013-09-20 13:42:00,91.4,76.0,29.95,NE,44,8.0,14.0,60,0.00,,,0.00,weatherlink.com 1.10,2013-09-20 17:42:00,
2013-09-20 13:57:00,91.7,76.0,29.95,ENE,77,4.0,11.0,61,0.00,,,0.00,weatherlink.com 1.10,2013-09-20 17:57:00,
2013-09-20 14:12:00,91.9,76.0,29.94,ENE,65,6.0,14.0,60,0.00,,,0.00,weatherlink.com 1.10,2013-09-20 18:12:00,
2013-09-20 14:27:00,92.4,78.0,29.93,NE,52,4.0,12.0,62,0.00,,,0.00,weatherlink.com 1.10,2013-09-20 18:27:00,
2013-09-20 14:43:00,92.5,77.0,29.93,ENE,64,10.0,15.0,60,0.00,,,0.00,weatherlink.com 1.10,2013-09-20 18:43:00,
2013-09-20 14:58:00,92.8,77.0,29.93,NNE,18,10.0,16.0,60,0.00,,,0.00,weatherlink.com 1.10,2013-09-20 18:58:00,
2013-09-20 15:13:00,93.3,77.0,29.93,ENE,58,11.0,16.0,59,0.00,,,0.00,weatherlink.com 1.10,2013-09-20 19:13:00,
2013-09-20 15:28:00,92.3,76.0,29.93,NE,52,8.0,13.0,60,0.00,,,0.00,weatherlink.com 1.10,2013-09-20 19:28:00,
2013-09-20 15:43:00,92.3,77.0,29.92,ENE,61,7.0,15.0,61,0.00,,,0.00,weatherlink.com 1.10,2013-09-20 19:43:00,
2013-09-20 15:58:00,91.1,75.0,29.92,NE,47,10.0,11.0,60,0.00,,,0.00,weatherlink.com 1.10,2013-09-20 19:58:00,
2013-09-20 16:13:00,91.7,77.0,29.91,North,7,6.0,12.0,62,0.00,,,0.00,weatherlink.com 1.10,2013-09-20 20:13:00,
2013-09-20 16:28:00,93.0,76.0,29.91,NE,47,10.0,14.0,58,0.00,,,0.00,weatherlink.com 1.10,2013-09-20 20:28:00,
2013-09-20 16:43:00,92.0,75.0,29.90,NE,34,7.0,12.0,58,0.00,,,0.00,weatherlink.com 1.10,2013-09-20 20:43:00,
2013-09-20 16:58:00,92.7,75.0,29.90,NE,49,8.0,14.0,56,0.00,,,0.00,weatherlink.com 1.10,2013-09-20 20:58:00,
2013-09-20 17:13:00,92.0,76.0,29.90,NE,55,7.0,8.0,59,0.00,,,0.00,weatherlink.com 1.10,2013-09-20 21:13:00,
2013-09-20 17:28:00,92.0,75.0,29.89,NE,52,7.0,12.0,57,0.00,,,0.00,weatherlink.com 1.10,2013-09-20 21:28:00,
2013-09-20 17:43:00,92.1,76.0,29.89,NE,54,5.0,11.0,60,0.00,,,0.00,weatherlink.com 1.10,2013-09-20 21:43:00,
2013-09-20 17:58:00,92.1,75.0,29.89,NE,54,9.0,13.0,58,0.00,,,0.00,weatherlink.com 1.10,2013-09-20 21:58:00,
2013-09-20 18:13:00,91.4,75.0,29.89,NE,51,7.0,15.0,58,0.00,,,0.00,weatherlink.com 1.10,2013-09-20 22:13:00,
2013-09-20 18:28:00,90.7,74.0,29.89,NE,34,7.0,14.0,58,0.00,,,0.00,weatherlink.com 1.10,2013-09-20 22:28:00,
2013-09-20 18:43:00,89.8,74.0,29.89,NE,41,9.0,12.0,59,0.00,,,0.00,weatherlink.com 1.10,2013-09-20 22:43:00,
2013-09-20 18:58:00,88.4,73.0,29.90,NE,46,9.0,14.0,60,0.00,,,0.00,weatherlink.com 1.10,2013-09-20 22:58:00,
2013-09-20 19:13:00,87.0,72.0,29.89,NE,53,10.0,15.0,62,0.00,,,0.00,weatherlink.com 1.10,2013-09-20 23:13:00,
2013-09-20 19:28:00,85.6,72.0,29.90,ENE,62,5.0,9.0,64,0.00,,,0.00,weatherlink.com 1.10,2013-09-20 23:28:00,
2013-09-20 19:43:00,84.4,71.0,29.90,ENE,58,3.0,8.0,65,0.00,,,0.00,weatherlink.com 1.10,2013-09-20 23:43:00,
2013-09-20 19:58:00,83.6,72.0,29.90,NE,56,4.0,7.0,68,0.00,,,0.00,weatherlink.com 1.10,2013-09-20 23:58:00,
2013-09-20 20:13:00,82.9,72.0,29.90,NE,56,5.0,8.0,69,0.00,,,0.00,weatherlink.com 1.10,2013-09-21 00:13:00,
2013-09-20 20:28:00,82.3,72.0,29.91,ENE,66,7.0,10.0,70,0.00,,,0.00,weatherlink.com 1.10,2013-09-21 00:28:00,
2013-09-20 20:43:00,82.1,72.0,29.91,NE,53,5.0,10.0,71,0.00,,,0.00,weatherlink.com 1.10,2013-09-21 00:43:00,
2013-09-20 20:58:00,81.8,72.0,29.91,ENE,62,5.0,10.0,72,0.00,,,0.00,weatherlink.com 1.10,2013-09-21 00:58:00,
2013-09-20 21:13:00,81.6,72.0,29.92,ENE,57,7.0,9.0,72,0.00,,,0.00,weatherlink.com 1.10,2013-09-21 01:13:00,
2013-09-20 21:28:00,81.1,72.0,29.92,ENE,58,7.0,10.0,73,0.00,,,0.00,weatherlink.com 1.10,2013-09-21 01:28:00,
2013-09-20 21:43:00,80.5,72.0,29.92,ENE,60,6.0,9.0,74,0.00,,,0.00,weatherlink.com 1.10,2013-09-21 01:43:00,
2013-09-20 21:58:00,80.1,72.0,29.93,ENE,66,4.0,8.0,75,0.00,,,0.00,weatherlink.com 1.10,2013-09-21 01:58:00,
2013-09-20 22:13:00,79.7,71.0,29.93,ENE,61,5.0,7.0,75,0.00,,,0.00,weatherlink.com 1.10,2013-09-21 02:13:00,
2013-09-20 22:28:00,79.3,71.0,29.93,ENE,61,5.0,6.0,76,0.00,,,0.00,weatherlink.com 1.10,2013-09-21 02:28:00,
2013-09-20 22:43:00,78.9,71.0,29.94,ENE,61,4.0,5.0,77,0.00,,,0.00,weatherlink.com 1.10,2013-09-21 02:43:00,
2013-09-20 22:58:00,78.4,71.0,29.93,ENE,61,4.0,6.0,78,0.00,,,0.00,weatherlink.com 1.10,2013-09-21 02:58:00,
2013-09-20 23:13:00,78.1,71.0,29.93,NE,56,6.0,10.0,79,0.00,,,0.00,weatherlink.com 1.10,2013-09-21 03:13:00,
2013-09-20 23:28:00,77.9,71.0,29.94,ENE,59,5.0,9.0,80,0.00,,,0.00,weatherlink.com 1.10,2013-09-21 03:28:00,
2013-09-20 23:43:00,77.9,72.0,29.93,ENE,61,4.0,9.0,81,0.00,,,0.00,weatherlink.com 1.10,2013-09-21 03:43:00,
2013-09-20 23:58:00,77.7,72.0,29.94,ENE,62,4.0,7.0,82,0.00,,,0.00,weatherlink.com 1.10,2013-09-21 03:58:00,